CW7229 Weather Reports


Display with metric or nautical units.
time (UTC)temp
F
wind
direction
speed
MPH
gust
MPH
rain 1hr
in
rain 24hr
in
rain mn
in
humidity
%
barometer
mb
20260901020114 62 214 5.0 9.0 0.00 0.12 0.00 48 1013.5
20260901013113 62 316 6.0 8.0 0.00 0.12 0.00 48 1013.5
20260901010113 62 234 4.0 8.0 0.00 0.12 0.00 48 1012.5
20260901003112 61 305 4.0 8.0 0.00 0.12 0.00 48 1012.5
20260901000112 61 290 6.0 11.0 0.00 0.12 0.00 47 1012.5
20260831233112 61 262 7.0 16.0 0.00 0.12 0.00 46 1012.5
20260831230111 61 215 7.0 10.0 0.00 0.12 0.00 47 1012.5
20260831213110 60 260 5.0 8.0 0.00 0.12 0.12 54 1011.5
20260831203110 60 320 4.0 8.0 0.00 0.12 0.12 50 1011.5
20260831200110 60 193 5.0 8.0 0.00 0.12 0.12 53 1010.5
20260831193110 60 180 4.0 9.0 0.00 0.12 0.12 54 1010.5
20260831180131 62 133 5.0 8.0 0.05 0.12 0.12 58 1009.5
20260831173111 62 171 5.0 9.0 0.08 0.12 0.12 55 1009.5
20260831170130 64 211 1.0 8.0 0.03 0.07 0.07 49 1009.4
20260831153114 66 169 3.0 6.0 0.02 0.03 0.03 41 1008.4
20260831150114 66 250 4.0 10.0 0.02 0.03 0.03 43 1008.4
20260831143113 70 227 11.0 13.0 0.00 0.01 0.01 31 1008.3
20260831140113 72 264 6.0 9.0 0.00 0.01 0.01 26 1007.2
20260831123112 74 204 7.0 12.0 0.00 0.00 0.00 21 1007.2
20260831120112 76 165 8.0 13.0 0.00 0.00 0.00 22 1007.1
20260831113111 71 181 4.0 8.0 0.00 0.00 0.00 31 1008.3
20260831110111 72 260 6.0 9.0 0.00 0.00 0.00 24 1008.2
20260831103111 72 211 7.0 11.0 0.00 0.00 0.00 24 1008.2
20260831093110 72 221 6.0 11.0 0.00 0.00 0.00 30 1008.2
20260831090110 70 194 8.0 11.0 0.00 0.00 0.00 33 1008.3
20260831083110 68 221 6.0 8.0 0.00 0.00 0.00 36 1008.3
20260831080110 67 191 5.0 10.0 0.00 0.00 0.00 38 1008.3
20260831070113 66 256 8.0 10.0 0.00 0.00 0.00 39 1008.4
20260831063114 66 192 6.0 8.0 0.00 0.00 0.00 40 1008.4
20260831060134 64 204 5.0 8.0 0.00 0.00 0.00 44 1008.4
20260831050134 60 156 0.0 0.0 0.00 0.00 0.00 47 1007.5
20260831043113 60 156 0.0 0.0 0.00 0.00 0.00 47 1007.5
20260831040113 61 156 0.0 0.0 0.00 0.00 0.00 47 1007.5
20260831033113 61 104 0.0 0.0 0.00 0.03 0.00 46 1008.5
20260831030113 60 115 0.0 0.0 0.00 0.03 0.00 47 1007.5